Marysville, MI

3:49 PM EST on December 06, 2016 (GMT -0500)
Saint Clair County International

Weather History for KPHN - February, 2013

Change the Weather History Date:

Monday, February 25, 2013

  Actual Average (KMTC) Record (KMTC)
Temperature  
Mean Temperature 26 °F -  
Max Temperature 37 °F 34 °F 62 °F (1976)
Min Temperature 15 °F 20 °F -6 °F (1993)
Degree Days  
Heating Degree Days 39    
Moisture  
Dew Point 21 °F    
Average Humidity 77    
Maximum Humidity 93    
Minimum Humidity 56    
Precipitation  
Precipitation 0.00 in - - ()
Sea Level Pressure  
Sea Level Pressure 30.18 in    
Wind  
Wind Speed 1 mph (ESE)    
Max Wind Speed 8 mph    
Max Gust Speed -    
Visibility 9 miles    
Events      
Averages and records for this station are not official NWS values.
T = Trace of Precipitation, MM = Missing Value Source: NWS Daily Summary

Daily Weather History Graph

Daily Weather History Graph

Search for Another Location

Airport or City:

Trip Planner

Search our weather history database for the weather conditions in past years. The results will help you decide how hot, cold, wet, or windy it might be!

Date:

Astronomy

Feb. 25, 2013 Rise Set
Actual Time 7:12 AM EST 6:14 PM EST
Civil Twilight 6:43 AM EST 6:43 PM EST
Nautical Twilight 6:10 AM EST 7:16 PM EST
Astronomical Twilight 5:37 AM EST 7:49 PM EST
Moon 6:28 PM EST (2/25) 6:40 AM EST (2/25)
Length of Visible Light 11h 59m
Length of Day
11h 02m
Full, 100% of the Moon is Illuminated
Feb 25
Full
Feb 25
Full
Mar 4
Last Quarter
Mar 11
New
Mar 19
First Quarter

Hourly Weather History & Observations

Time (EST) Temp. Windchill Dew Point Humidity Pressure Visibility Wind Dir Wind Speed Gust Speed Precip Events Conditions
12:18 AM 19.4 °F - 17.6 °F 93% 30.14 in 10.0 mi Calm Calm - N/A   Clear
12:38 AM 19.4 °F - 17.6 °F 93% 30.14 in 7.0 mi Calm Calm - N/A   Clear
12:59 AM 19.4 °F - 15.8 °F 86% 30.14 in 10.0 mi Calm Calm - N/A   Clear
1:18 AM 19.4 °F - 15.8 °F 86% 30.14 in 10.0 mi Calm Calm - N/A   Clear
1:38 AM 17.6 °F - 15.8 °F 93% 30.15 in 7.0 mi Calm Calm - N/A   Clear
1:59 AM 17.6 °F - 15.8 °F 93% 30.15 in 10.0 mi Calm Calm - N/A   Clear
2:18 AM 19.4 °F - 17.6 °F 93% 30.16 in 7.0 mi Calm Calm - N/A   Clear
2:39 AM 17.6 °F - 15.8 °F 93% 30.16 in 10.0 mi Calm Calm - N/A   Clear
2:58 AM 17.6 °F - 15.8 °F 93% 30.16 in 10.0 mi Calm Calm - N/A   Mostly Cloudy
3:19 AM 17.6 °F - 15.8 °F 93% 30.16 in 10.0 mi Calm Calm - N/A   Overcast
3:38 AM 17.6 °F - 14.0 °F 86% 30.16 in 7.0 mi Calm Calm - N/A   Overcast
3:58 AM 17.6 °F - 14.0 °F 86% 30.16 in 10.0 mi Calm Calm - N/A   Mostly Cloudy
4:18 AM 17.6 °F - 14.0 °F 86% 30.16 in 7.0 mi Calm Calm - N/A   Mostly Cloudy
4:38 AM 17.6 °F - 14.0 °F 86% 30.16 in 7.0 mi Calm Calm - N/A   Mostly Cloudy
4:59 AM 17.6 °F - 14.0 °F 86% 30.16 in 7.0 mi Calm Calm - N/A   Clear
5:18 AM 15.8 °F - 14.0 °F 93% 30.16 in 7.0 mi Calm Calm - N/A   Clear
5:38 AM 15.8 °F - 14.0 °F 93% 30.17 in 7.0 mi Calm Calm - N/A   Scattered Clouds
5:58 AM 15.8 °F - 14.0 °F 93% 30.17 in 7.0 mi Calm Calm - N/A   Scattered Clouds
6:18 AM 17.6 °F - 14.0 °F 86% 30.17 in 7.0 mi Calm Calm - N/A   Mostly Cloudy
6:39 AM 19.4 °F - 15.8 °F 86% 30.18 in 7.0 mi Calm Calm - N/A   Overcast
6:58 AM 19.4 °F - 17.6 °F 93% 30.19 in 7.0 mi Calm Calm - N/A   Overcast
7:18 AM 19.4 °F - 17.6 °F 93% 30.19 in 7.0 mi Calm Calm - N/A   Overcast
7:39 AM 19.4 °F - 17.6 °F 93% 30.20 in 7.0 mi Calm Calm - N/A   Overcast
7:58 AM 21.2 °F - 19.4 °F 93% 30.21 in 7.0 mi Calm Calm - N/A   Overcast
8:19 AM 23.0 °F - 21.2 °F 93% 30.21 in 7.0 mi Calm Calm - N/A   Overcast
8:38 AM 24.8 °F - 21.2 °F 86% 30.22 in 7.0 mi Calm Calm - N/A   Overcast
8:58 AM 24.8 °F - 23.0 °F 93% 30.22 in 7.0 mi Calm Calm - N/A   Overcast
9:18 AM 26.6 °F - 24.8 °F 93% 30.22 in 7.0 mi Calm Calm - N/A   Overcast
9:38 AM 28.4 °F - 24.8 °F 86% 30.23 in 10.0 mi Calm Calm - N/A   Overcast
9:59 AM 30.2 °F - 26.6 °F 86% 30.23 in 10.0 mi Calm Calm - N/A   Overcast
10:18 AM 32.0 °F - 26.6 °F 80% 30.22 in 10.0 mi Calm Calm - N/A   Overcast
10:38 AM 32.0 °F - 26.6 °F 80% 30.22 in 10.0 mi Calm Calm - N/A   Overcast
10:59 AM 33.8 °F - 24.8 °F 70% 30.22 in 10.0 mi Calm Calm - N/A   Overcast
11:18 AM 33.8 °F - 24.8 °F 70% 30.21 in 10.0 mi Calm Calm - N/A   Overcast
11:39 AM 35.6 °F - 24.8 °F 65% 30.21 in 10.0 mi Calm Calm - N/A   Overcast
11:58 AM 37.4 °F - 23.0 °F 56% 30.22 in 10.0 mi Calm Calm - N/A   Overcast
12:18 PM 37.4 °F 34.9 °F 23.0 °F 56% 30.21 in 10.0 mi East 3.5 mph - N/A   Overcast
12:39 PM 37.4 °F 32.8 °F 23.0 °F 56% 30.21 in 10.0 mi SE 5.8 mph - N/A   Overcast
12:58 PM 37.4 °F 31.4 °F 23.0 °F 56% 30.21 in 10.0 mi SSE 8.1 mph - N/A   Overcast
1:19 PM 37.4 °F 33.8 °F 23.0 °F 56% 30.20 in 10.0 mi SSE 4.6 mph - N/A   Overcast
1:38 PM 37.4 °F 34.9 °F 24.8 °F 60% 30.19 in 10.0 mi East 3.5 mph - N/A   Overcast
1:58 PM 37.4 °F 34.9 °F 23.0 °F 56% 30.19 in 10.0 mi ESE 3.5 mph - N/A   Overcast
2:19 PM 37.4 °F - 24.8 °F 60% 30.18 in 10.0 mi Calm Calm - N/A   Overcast
2:38 PM 37.4 °F 32.8 °F 24.8 °F 60% 30.17 in 10.0 mi SE 5.8 mph - N/A   Overcast
2:58 PM 37.4 °F - 24.8 °F 60% 30.17 in 10.0 mi Calm Calm - N/A   Overcast
3:19 PM 37.4 °F 33.8 °F 24.8 °F 60% 30.16 in 10.0 mi ESE 4.6 mph - N/A   Overcast
3:38 PM 37.4 °F 32.1 °F 24.8 °F 60% 30.16 in 10.0 mi ESE 6.9 mph - N/A   Overcast
3:59 PM 37.4 °F 34.9 °F 24.8 °F 60% 30.17 in 10.0 mi SE 3.5 mph - N/A   Overcast
4:18 PM 37.4 °F 34.9 °F 24.8 °F 60% 30.17 in 10.0 mi SSE 3.5 mph - N/A   Overcast
4:38 PM 37.4 °F 34.9 °F 26.6 °F 65% 30.17 in 10.0 mi East 3.5 mph - N/A   Overcast
4:59 PM 37.4 °F 32.8 °F 24.8 °F 60% 30.17 in 10.0 mi SE 5.8 mph - N/A   Overcast
5:18 PM 37.4 °F 33.8 °F 26.6 °F 65% 30.17 in 10.0 mi ESE 4.6 mph - N/A   Mostly Cloudy
5:39 PM 37.4 °F 31.4 °F 26.6 °F 65% 30.17 in 10.0 mi ESE 8.1 mph - N/A   Mostly Cloudy
5:58 PM 35.6 °F 30.7 °F 26.6 °F 70% 30.16 in 10.0 mi ESE 5.8 mph - N/A   Overcast
6:04 PM 35.6 °F 29.9 °F 26.6 °F 70% 30.16 in 10.0 mi ESE 6.9 mph - N/A   Overcast
9:12 PM 32.0 °F 27.5 °F 24.8 °F 75% 30.17 in 10.0 mi ESE 4.6 mph - N/A   Scattered Clouds
9:18 PM 32.0 °F 27.5 °F 24.8 °F 75% 30.17 in 10.0 mi ESE 4.6 mph - N/A   Scattered Clouds
9:39 PM 32.0 °F 27.5 °F 24.8 °F 75% 30.16 in 10.0 mi East 4.6 mph - N/A   Clear
9:58 PM 30.2 °F 25.4 °F 24.8 °F 80% 30.14 in 10.0 mi East 4.6 mph - N/A   Clear
10:19 PM 30.2 °F 25.4 °F 23.0 °F 75% 30.13 in 10.0 mi East 4.6 mph - N/A   Clear
10:38 PM 30.2 °F - 23.0 °F 75% 30.13 in 10.0 mi Calm Calm - N/A   Clear
10:58 PM 30.2 °F 24.3 °F 23.0 °F 75% 30.13 in 10.0 mi East 5.8 mph - N/A   Clear
11:19 PM 30.2 °F 25.4 °F 23.0 °F 75% 30.14 in 10.0 mi East 4.6 mph - N/A   Clear
11:38 PM 30.2 °F 25.4 °F 23.0 °F 75% 30.15 in 10.0 mi East 4.6 mph - N/A   Clear
11:59 PM 30.2 °F 25.4 °F 23.0 °F 75% 30.15 in 10.0 mi East 4.6 mph - N/A   Clear